Wind_Speed
7 7 8 8 8 8 8 8 8 9 9 10 10 10 10 10 11 12 12 12 12 13 13 13 13 13 14 14 14 15 16 16 16 16 15 15 16 17 17 17 17 18 18
8 8 8 9 9 9 9 9 8 9 9 10 10 10 10 11 12 11 11 12 12 12 13 13 14 14 14 14 14 15 15 16 16 16 16 16 17 17 17 18 18 18 18
9 9 9 9 9 9 9 9 9 9 10 10 10 10 10 10 10 10 11 11 12 13 13 13 14 14 15 15 15 14 15 16 16 16 16 16 17 17 18 18 18 19 19
10 10 9 9 9 9 9 9 9 9 10 10 9 9 10 10 10 11 11 11 12 12 13 14 14 14 15 15 15 15 16 16 16 16 16 17 17 18 18 19 19 20 20
11 11 10 10 10 10 9 9 10 10 11 11 10 10 10 10 10 11 11 12 12 13 13 14 14 15 15 15 16 16 16 16 16 17 17 17 18 18 19 19 20 20 21
12 12 11 11 11 11 11 11 11 12 12 12 11 12 12 12 12 12 12 12 13 13 14 14 14 14 14 15 16 16 16 15 15 16 17 17 18 18 19 19 19 20 20
13 12 12 12 12 12 11 11 12 12 12 13 13 13 13 13 13 13 13 13 13 14 14 14 14 15 15 15 15 15 15 15 15 16 17 17 18 18 18 19 20 20 20
13 13 13 13 13 13 13 13 13 13 13 13 13 13 13 13 14 13 13 14 14 14 14 14 14 15 15 15 15 14 15 15 16 16 17 17 18 19 19 19 20 20 20
14 14 14 14 14 14 14 14 14 14 14 14 14 13 14 14 14 14 15 15 14 15 14 14 15 15 15 15 15 15 15 16 17 17 17 17 18 19 19 20 21 20 20
15 15 15 15 15 15 14 14 14 14 14 14 14 14 14 15 15 15 15 15 15 15 15 15 15 15 15 15 16 15 16 16 16 17 18 19 19 20 20 20 20 20 20
16 15 15 15 15 15 15 15 15 15 15 15 15 15 15 15 15 15 16 16 16 15 15 15 14 15 15 16 16 16 16 16 17 17 18 19 19 20 20 21 21 21 20
16 16 16 16 16 16 16 16 16 16 16 16 16 16 16 16 16 17 16 16 16 16 16 16 16 16 16 16 17 16 17 17 18 18 19 19 19 20 20 21 21 21 20
17 17 17 17 17 17 17 17 17 17 17 17 17 16 16 16 16 17 17 16 16 17 17 17 17 17 17 17 17 18 18 18 19 19 19 19 19 19 19 20 19 19 19
19 18 18 18 18 18 18 17 17 17 17 18 17 17 17 17 17 17 17 17 17 18 18 19 19 19 18 18 19 19 19 20 19 19 18 18 18 18 18 17 17 17 18
19 19 19 19 19 19 19 19 18 18 17 18 18 18 18 17 18 18 18 18 18 18 18 19 20 20 19 20 20 20 20 20 20 20 19 19 19 18 18 17 17 17 17
19 19 20 20 20 20 19 20 19 18 18 19 18 18 18 18 19 19 18 19 19 19 19 20 20 21 21 22 21 21 21 21 20 20 20 19 19 19 18 17 17 17 17
21 21 21 21 21 21 21 21 20 19 19 19 19 19 19 19 20 20 20 20 20 20 20 20 20 21 22 22 22 21 21 21 21 21 20 20 19 19 19 19 18 18 18
22 22 22 22 22 22 21 21 21 20 20 20 20 20 21 22 21 21 21 22 22 21 21 20 21 21 22 22 22 22 21 21 22 21 21 20 20 20 19 19 19 19 18
23 23 23 22 22 22 22 22 22 21 21 21 21 21 21 22 22 23 23 23 23 23 23 22 22 21 22 22 22 21 21 22 22 21 20 20 20 20 19 19 19 19 19
23 23 23 23 23 23 23 23 22 22 22 22 22 22 22 22 23 24 24 24 25 24 24 23 22 22 22 22 22 21 21 21 21 21 20 20 20 20 20 19 19 19 19
23 23 23 24 23 23 23 22 22 23 23 23 23 23 23 24 23 24 24 24 25 25 24 24 23 23 22 22 22 22 22 21 20 20 20 19 20 20 20 20 20 20 19
24 24 24 24 24 24 24 24 24 24 24 25 25 25 25 25 25 25 25 25 25 25 24 24 24 24 23 23 23 22 21 20 20 20 21 20 20 21 21 21 21 21 21
24 25 25 25 25 24 24 25 25 25 26 26 26 26 26 26 26 26 26 26 26 26 25 25 25 24 24 24 23 23 22 21 21 21 22 21 21 22 22 21 22 22 22
25 25 25 25 25 25 25 26 26 26 26 27 27 27 27 27 27 27 27 27 27 27 26 26 26 25 25 25 24 24 23 23 22 22 22 22 22 23 22 22 22 22 22
26 27 27 26 26 27 27 27 27 27 27 28 28 28 28 28 28 28 28 28 28 28 27 27 27 27 26 26 25 25 25 25 24 24 24 24 23 23 23 23 23 24 24
27 27 27 27 28 28 27 27 28 28 28 28 28 28 28 28 28 28 29 29 29 28 28 27 27 27 27 27 27 28 27 26 26 25 26 25 25 25 24 25 26 26 26
Wind_Direction
308 303 298 293 289 288 287 285 281 275 273 273 275 272 275 274 273 269 267 264 263 266 265 266 267 267 267 266 267 265 266 268 267 266 264 263 264 264 263 263 262 263 265
308 301 295 291 287 285 285 284 282 281 276 276 276 277 276 275 276 275 272 268 267 268 268 268 268 269 270 270 269 268 268 268 267 267 266 268 267 266 264 264 263 264 266
306 301 297 294 291 289 287 283 281 282 281 280 279 278 277 276 277 274 273 272 273 272 270 270 272 273 271 270 270 269 269 268 268 268 268 268 268 268 267 266 266 267 268
306 303 300 300 298 294 290 285 282 282 281 280 281 280 277 277 277 275 274 274 275 275 274 273 273 275 273 273 272 272 272 270 271 269 268 269 269 270 271 270 269 269 269
308 307 305 305 301 297 292 288 283 281 280 281 280 281 278 276 276 277 277 276 275 275 277 278 276 276 276 277 275 274 274 272 270 268 268 269 270 271 271 271 271 271 270
307 305 304 303 299 295 290 285 284 278 276 277 277 279 279 277 277 277 277 277 275 275 276 277 278 277 277 279 279 276 275 273 270 271 271 271 271 272 271 271 272 271 271
302 301 299 300 296 293 289 282 280 279 277 275 277 279 278 278 280 279 280 280 278 279 279 278 278 277 277 279 279 278 275 272 272 274 275 274 273 273 273 270 271 272 273
298 295 295 295 293 289 285 281 278 279 278 277 277 278 279 281 280 281 282 282 282 281 280 279 278 278 278 280 280 278 276 274 274 275 276 275 274 273 272 270 270 271 272
295 293 292 292 291 289 285 281 276 275 277 278 278 280 280 280 280 279 281 281 281 281 280 280 279 279 279 281 280 278 277 277 276 275 275 274 274 273 273 271 271 270 272
295 291 290 289 288 288 287 283 279 277 274 277 280 282 281 279 278 277 278 280 281 280 279 278 279 279 278 279 279 279 278 278 278 277 276 274 275 274 274 273 273 272 272
296 293 291 289 287 288 287 282 280 278 277 277 279 280 280 279 277 277 278 279 280 279 278 277 278 280 279 279 278 278 279 280 282 281 279 278 277 276 276 274 272 271 271
299 297 296 293 289 289 289 286 282 279 277 274 277 278 278 278 278 278 279 277 277 277 277 277 278 280 280 280 280 279 279 282 282 283 282 280 278 277 276 275 271 270 269
298 296 294 293 291 288 289 287 284 281 278 274 275 276 276 276 278 279 277 277 277 277 278 278 278 280 279 280 279 278 279 281 282 283 284 282 278 280 281 276 271 269 268
294 294 292 291 290 288 287 287 286 284 279 277 275 274 275 275 278 279 279 277 278 277 278 278 279 279 279 279 280 280 280 281 280 282 284 283 280 281 283 278 271 269 267
294 291 289 290 288 287 286 286 285 282 278 276 276 275 274 275 277 280 281 280 281 281 279 279 279 280 280 279 280 278 279 280 280 281 283 283 281 280 278 275 271 269 266
292 290 289 289 288 286 286 285 283 281 278 276 276 275 274 274 276 279 280 280 281 283 283 282 281 282 282 281 280 279 279 279 279 280 282 282 281 279 276 273 271 269 267
291 290 289 288 286 285 286 286 284 281 279 278 275 274 274 274 276 277 277 278 280 284 285 283 284 284 284 283 282 282 281 281 279 280 280 280 278 276 273 270 271 269 267
292 290 289 288 286 284 284 284 283 281 280 277 275 274 275 275 275 276 278 278 279 281 283 283 285 286 285 285 284 283 281 281 280 278 278 278 276 273 271 271 269 268 265
294 291 289 288 286 284 283 284 282 280 279 278 276 275 276 276 275 276 278 278 278 278 279 281 284 286 287 287 286 284 282 281 279 277 277 275 275 272 270 269 268 267 267
296 293 291 288 286 284 283 283 281 279 279 277 276 276 276 276 277 278 278 278 278 278 278 279 282 283 284 286 285 284 283 281 279 277 275 275 274 273 271 268 268 267 266
297 295 293 290 287 285 283 281 279 279 279 277 276 276 277 278 278 278 278 278 278 278 279 278 278 279 281 283 283 282 283 282 278 277 274 273 273 274 271 270 269 271 269
296 294 293 291 288 285 283 282 279 279 279 278 276 277 277 278 278 277 278 277 277 277 277 276 277 278 279 281 280 279 279 279 278 276 275 273 274 273 271 270 271 270 269
295 293 293 291 289 285 283 282 281 280 279 278 277 276 276 276 278 278 277 276 276 276 275 275 276 277 278 279 277 275 275 275 278 276 274 274 275 274 271 271 271 270 269
294 293 293 292 289 285 283 282 281 280 278 277 277 277 276 276 277 277 276 276 276 276 275 275 275 275 277 277 276 273 272 275 276 273 274 274 275 275 272 273 272 272 272
295 293 292 291 289 287 285 283 282 281 279 278 279 278 277 276 276 276 275 274 275 275 275 275 274 274 275 276 276 275 274 275 274 274 273 273 274 274 273 271 272 274 275
294 294 293 291 290 288 285 284 283 281 280 279 278 278 277 277 276 277 275 274 274 273 272 272 272 273 274 275 276 276 274 273 272 273 273 273 273 274 274 273 272 273 274
Height
5844 5843 5843 5843 5843 5843 5843 5843 5843 5843 5843 5843 5844 5844 5844 5844 5845 5845 5845 5846 5846 5847 5847 5847 5848 5848 5849 5849 5850 5851 5851 5851 5852 5853 5853 5854 5855 5855 5856 5856 5857 5858 5858
5842 5841 5841 5841 5841 5841 5841 5841 5841 5841 5841 5841 5841 5842 5842 5842 5842 5842 5843 5843 5844 5844 5844 5844 5845 5845 5846 5846 5846 5847 5847 5848 5848 5849 5850 5850 5851 5851 5852 5852 5853 5854 5854
5840 5840 5840 5839 5839 5839 5839 5839 5839 5839 5839 5839 5839 5839 5840 5840 5840 5840 5840 5841 5841 5841 5841 5842 5842 5842 5842 5843 5843 5843 5844 5844 5845 5845 5846 5846 5847 5847 5848 5848 5849 5849 5849
5839 5838 5838 5838 5837 5837 5837 5837 5837 5837 5837 5837 5837 5837 5837 5838 5838 5838 5838 5838 5838 5838 5838 5838 5839 5839 5839 5839 5840 5840 5840 5840 5841 5841 5842 5842 5843 5843 5844 5844 5844 5845 5845
5837 5837 5837 5836 5836 5835 5835 5835 5835 5835 5835 5835 5835 5835 5835 5835 5835 5835 5835 5835 5835 5835 5835 5835 5835 5836 5836 5836 5836 5836 5836 5836 5837 5837 5838 5838 5839 5839 5839 5839 5839 5840 5840
5836 5835 5834 5834 5833 5833 5833 5832 5832 5832 5832 5832 5832 5832 5832 5832 5832 5832 5832 5832 5832 5832 5832 5832 5832 5832 5832 5832 5832 5832 5832 5833 5833 5833 5834 5834 5834 5834 5834 5835 5835 5835 5835
5833 5833 5832 5831 5831 5830 5830 5830 5830 5829 5829 5829 5829 5829 5829 5829 5829 5829 5829 5829 5829 5829 5829 5829 5829 5829 5829 5829 5829 5828 5829 5829 5829 5829 5829 5829 5829 5830 5830 5830 5830 5830 5830
5831 5830 5830 5829 5828 5828 5827 5827 5827 5826 5826 5826 5826 5826 5826 5827 5826 5826 5826 5826 5825 5825 5825 5825 5825 5826 5826 5825 5825 5825 5825 5825 5825 5825 5825 5825 5825 5825 5825 5825 5825 5825 5825
5828 5827 5826 5826 5825 5824 5824 5823 5823 5823 5823 5823 5823 5823 5823 5823 5823 5823 5822 5822 5822 5822 5822 5822 5822 5822 5822 5822 5821 5821 5821 5821 5821 5821 5820 5820 5820 5820 5820 5820 5820 5820 5820
5824 5823 5823 5822 5821 5821 5820 5820 5819 5819 5819 5819 5819 5819 5819 5819 5819 5819 5819 5819 5819 5819 5819 5818 5818 5818 5818 5818 5818 5817 5817 5817 5816 5816 5816 5815 5815 5815 5814 5814 5814 5814 5815
5820 5820 5819 5818 5818 5817 5816 5816 5815 5815 5816 5816 5815 5815 5815 5815 5815 5816 5816 5815 5815 5815 5815 5815 5815 5815 5814 5814 5814 5813 5813 5813 5812 5811 5811 5810 5809 5809 5808 5808 5808 5808 5809
5817 5816 5815 5814 5814 5813 5812 5812 5812 5811 5811 5812 5812 5812 5812 5812 5812 5812 5812 5812 5811 5811 5811 5811 5811 5811 5810 5810 5809 5809 5809 5808 5807 5806 5805 5804 5804 5803 5802 5801 5801 5802 5803
5813 5812 5811 5810 5809 5809 5808 5808 5807 5807 5807 5807 5807 5808 5808 5807 5807 5808 5808 5807 5807 5807 5807 5807 5806 5806 5806 5806 5805 5805 5804 5804 5803 5802 5801 5799 5798 5797 5796 5794 5794 5795 5797
5809 5807 5807 5806 5805 5804 5804 5803 5803 5802 5802 5802 5803 5803 5803 5803 5803 5803 5803 5803 5803 5803 5803 5802 5802 5801 5801 5801 5800 5800 5799 5798 5797 5796 5796 5795 5794 5792 5791 5789 5789 5791 5792
5804 5803 5802 5801 5800 5799 5799 5798 5798 5797 5798 5798 5798 5798 5799 5799 5799 5799 5798 5799 5799 5799 5798 5797 5797 5796 5796 5796 5795 5795 5794 5793 5792 5792 5791 5789 5788 5787 5786 5786 5786 5787 5788
5799 5798 5797 5796 5795 5794 5794 5793 5793 5792 5793 5793 5793 5794 5794 5794 5794 5794 5794 5793 5793 5794 5793 5793 5792 5791 5790 5790 5789 5789 5788 5787 5787 5786 5785 5784 5783 5783 5782 5782 5782 5783 5783
5794 5793 5792 5791 5790 5789 5788 5788 5787 5787 5787 5788 5788 5788 5789 5789 5789 5789 5789 5788 5788 5788 5788 5787 5786 5785 5784 5783 5783 5783 5782 5782 5781 5781 5780 5779 5778 5778 5778 5778 5778 5778 5778
5789 5787 5786 5785 5784 5783 5783 5782 5782 5782 5782 5782 5783 5783 5783 5783 5783 5783 5783 5783 5783 5782 5782 5781 5780 5779 5778 5777 5777 5776 5776 5776 5775 5775 5775 5774 5774 5773 5773 5773 5773 5773 5773
5783 5782 5780 5779 5779 5778 5777 5777 5776 5777 5777 5777 5777 5777 5777 5777 5777 5777 5777 5777 5776 5776 5775 5775 5774 5773 5772 5771 5770 5770 5770 5770 5769 5769 5769 5769 5769 5768 5768 5768 5768 5768 5768
5777 5776 5774 5773 5773 5772 5771 5771 5770 5770 5771 5771 5771 5771 5771 5771 5771 5771 5771 5770 5770 5769 5768 5768 5768 5767 5766 5765 5764 5764 5764 5763 5763 5763 5763 5763 5763 5763 5763 5763 5763 5763 5763
5771 5770 5768 5767 5766 5765 5765 5764 5764 5764 5764 5764 5765 5765 5765 5764 5764 5764 5764 5763 5763 5762 5762 5761 5761 5761 5760 5759 5758 5758 5758 5758 5757 5757 5758 5758 5758 5758 5757 5757 5758 5758 5758
5766 5764 5762 5761 5760 5759 5758 5758 5757 5758 5758 5758 5758 5758 5758 5757 5757 5757 5756 5756 5756 5755 5755 5754 5754 5754 5753 5753 5752 5752 5752 5752 5752 5752 5752 5752 5752 5752 5752 5752 5752 5752 5753
5760 5758 5756 5755 5753 5752 5751 5751 5750 5750 5750 5750 5750 5750 5750 5750 5750 5749 5749 5748 5748 5747 5747 5747 5747 5747 5746 5746 5746 5745 5745 5745 5745 5745 5745 5746 5746 5746 5746 5746 5746 5746 5747
5753 5751 5750 5748 5746 5745 5744 5743 5743 5742 5742 5743 5742 5742 5742 5742 5742 5742 5741 5741 5740 5740 5740 5740 5740 5740 5739 5739 5738 5739 5739 5739 5739 5739 5739 5740 5739 5739 5740 5740 5739 5740 5740
5746 5744 5742 5741 5739 5737 5736 5736 5735 5735 5735 5735 5734 5734 5734 5734 5734 5733 5733 5733 5733 5733 5732 5732 5732 5732 5731 5732 5731 5731 5731 5731 5732 5732 5732 5732 5732 5732 5732 5733 5732 5732 5732
5739 5737 5735 5733 5731 5730 5728 5728 5727 5727 5727 5727 5726 5726 5725 5725 5725 5725 5724 5724 5724 5724 5724 5724 5724 5724 5724 5724 5724 5724 5724 5724 5724 5725 5724 5724 5724 5724 5725 5725 5725 5725 5725